Location: M cDonald Observatory Visitors Center
(30.6776°N, 104.0264°W)
Time: 19:09:53
(UTC-06:00)

LightSail 2 - Visible Passes

Search period start: 27 February 2020 00:00
Search period end: 08 March 2020 00:00
Orbit: 698 x 724 km, 24.0° (Epoch: 27 February)

Date Brightness Start Highest point End Pass type
(mag) Time Alt. Az. Time Alt. Az. Time Alt. Az.
27 Feb 7.5 04:59:55 14° SSE 04:59:55 14° SSE 05:00:51 10° SE visible
28 Feb 7.3 05:43:49 12° SSW 05:43:49 12° SSW 05:45:11 10° S visible
02 Mar 7.1 20:30:28 10° S 20:32:33 14° SSE 20:32:33 14° SSE visible
03 Mar 7.3 19:33:45 10° SSE 19:34:24 10° SSE 19:35:04 10° SSE visible
03 Mar 7.3 21:15:09 10° SW 21:16:27 16° SSW 21:16:27 16° SSW visible
04 Mar 6.6 20:16:48 10° SSW 20:20:33 21° SSE 20:21:24 20° SSE visible
05 Mar 7.0 19:18:42 10° SSW 19:21:48 16° SSE 19:24:55 10° ESE visible
05 Mar 6.6 21:02:16 10° SW 21:05:14 26° SSW 21:05:14 26° SSW visible
06 Mar 6.3 20:03:41 10° SW 20:07:59 28° SSE 20:10:06 21° SE visible
06 Mar 7.8 21:48:21 10° WSW 21:49:01 13° WSW 21:49:01 13° WSW visible
07 Mar 6.0 20:49:33 10° WSW 20:53:50 36° S 20:53:50 36° S visible
